ARIANE 5 R/B, 32021

Orbit data source: Space-Track

ARIANE 5 R/B, 32021 is space debris in HEO originally from a launch on Tue, 14 Aug 2007 UTC launched from the French Guiana (FRGUI). Debris objects in space refer to the collection of defunct objects orbiting the Earth. Examples of debris include non-operational satellites, rocket bodies, and fragments generated from explosions, collisions, or faulty payload assembly.

Loading next visibility...
Identifier
32021, 2007-036D
Orbit
HEO
Last TLE update
11 hours ago
Origin
Manufacturer
EADS/LV
Mission
Spacecraft
Bus & Motor
ESC-A, Unknown motor
Mass
~5,000 kg wet, ~5,000 kg dry
Launch date (UTC)
2007-08-14 (18 years ago)
Launch vehicle
Unknown
Launch site
French Guiana (FRGUI)
Object type
Payload
Rocket body
Debris
Shape & HBR
Cyl + 1 Nozzle, 7 m
Radar Cross Section
41.627 m², Large (>1 m²)

Expand to show TLE details & history

TLE from 11 hours ago
0 ARIANE 5 R/B
1 32021U 07036D   25186.91570744  .00001058  00000-0  63333-3 0  9998
2 32021   1.9230 229.0835 7123430   6.8053 359.3482  2.45960183154132
Epoch: 2025-07-05T21:58Z
TLE epoch observation values (Epoch: 2025-07-05T21:58:37.122Z)
Latitude
-0.0001°
Longitude
-24.67471°
Altitude
306.792 km
Speed
10.102 km/s
True Right ascension
15h 16m 30s
True Declination
0° 00' 00"
Sunlit
Object was in full shadow at epoch
Visualization orbit readout
Latitude
1.03914°
Longitude
121.84663°
Altitude
18,509.109 km
Speed
3.852 km/s
Apparent Right ascension
01h 44m 36s
Apparent Declination
-9° 05' 40"
Sunlit
Object is in daylight
Visualization observer readout
Local Sidereal Time
21:13:21
Azimuth
111.519° ESE
Elevation
10.637°
Doppler factor
1
Orbital elements
Apogee altitude
33,327.526 km
Perigee altitude
292.029 km
Semi-major axis
23,187.914 km
Eccentricity
0.71234
Inclination
1.923°
RAAN
229.0835°
Arg. of periapsis
6.8053°
True anomaly
Unknown
Mean anomaly
359.3482°
Eccentric anomaly
Unknown
Mean motion
0.61468 °/min
Orbital period
585.67 mins
BSTAR
0.00063333
Loading maneuver chart data...
Loading SW <> Apogee altitude chart data...
Loading historical data...
Loading historical data...
Loading historical data...
Loading historical data...
Loading historical data...
Loading historical data...
Loading historical data...
Other satellites on launch #36 in the year 2007 (2007-08-14 UTC)

ARIANE 5 R/B Visibility forecast

Observer location: undefined°, undefined°

Span
Click to sort rows by Start time (UTC) header in descending order
Start Az.
Max El. time (UTC)
Max El. Az.
Max El.
End time (UTC)
End Az.
442 mins2025-07-06 09:15:23.395Z111.544° ESE2025-07-06 14:46:23.395Z132.286° SE25.347°2025-07-06 16:37:23.395Z122.753° SE
|